Location: Eaton
(41.3139°N, 82.0207°W)
Time: 16:31:26
(UTC+00:00)

Cosmos 1606 Rocket - Pass Details

Date: 17 June 2021
Orbit: 602 x 633 km, 82.5° (Epoch: 01 August)

Event Time Altitude Azimuth Distance (km) Brightness Sun altitude
Rises 04:34:13 0° 349° (N) 2,935 8.5 -24.1°
Reaches altitude 10° 04:36:29 10° 347° (NNW) 2,020 7.3 -24.2°
Maximum altitude 04:40:55 68° 265° (W) 678 3.6 -24.3°
Enters shadow 04:40:58 68° 261° (W) 678 3.6 -24.3°
